User: anonymous   Login
Location: Raven Hill Discovery Center
(45.1336°N, 85.0553°W)
Time: 06:20:55
(UTC-04:00)
Language:

Cosmos 1470 - Orbit

View from above orbital plane
View from above orbital plane
View from above satellite
View from above satellite

Ground track
Ground track

The orbit data is extracted from the following two-line orbital elements,

1 14147U 83061A   15117.87873809  .00002737  00000-0  17127-3 0  9990
2 14147 082.5050 085.2849 0016401 059.5821 300.7026 15.08909378486913
Epoch (UTC): 27 April 2015 21:05:22
Eccentricity: 0.0016401
inclination: 82.5050°
perigee height: 528 km
apogee height: 551 km
right ascension of ascending node: 85.2849°
argument of perigee: 59.5821°
revolutions per day: 15.08909378
mean anomaly at epoch: 300.7026°
orbit number at epoch: 48691

The dashed part of the orbit path shows where the satellite is in the earth's shadow,  

DLR